Old Crow,

10:12 PM PDT on April 27, 2017 (GMT -0700)
Old Crow

Weather History for CZOC - February, 2014

Change the Weather History Date:

Friday, February 21, 2014

  Actual Average Record
Temperature  
Mean Temperature -36 °F -  
Max Temperature -26 °F - - ()
Min Temperature -45 °F - - ()
Degree Days  
Heating Degree Days 100    
Moisture  
Dew Point -48 °F    
Average Humidity 58    
Maximum Humidity 67    
Minimum Humidity 33    
Precipitation  
Precipitation 0.00 in - - ()
Sea Level Pressure  
Sea Level Pressure 30.60 in    
Wind  
Wind Speed 1 mph ()    
Max Wind Speed 2 mph    
Max Gust Speed -    
T = Trace of Precipitation, MM = Missing Value Source: Averaged Metar Reports

Daily Weather History Graph

Daily Weather History Graph

Search for Another Location

Airport or City:

Trip Planner

Search our weather history database for the weather conditions in past years. The results will help you decide how hot, cold, wet, or windy it might be!

Date:

Astronomy

Feb. 21, 2014 Rise Set
Actual Time 9:08 AM PST 5:58 PM PST
Civil Twilight 8:11 AM PST 6:56 PM PST
Nautical Twilight 7:08 AM PST 7:59 PM PST
Astronomical Twilight 6:04 AM PST 9:03 PM PST
Moon 3:05 AM PST (2/21) 9:27 AM PST (2/21)
Length of Visible Light 10h 44m
Length of Day
8h 49m
Waning Gibbous, 59% of the Moon is Illuminated
Feb 21
Waning Gibbous
Feb 22
Last Quarter
Mar 1
New
Mar 8
First Quarter
Mar 16
Full

Hourly Weather History & Observations

Time (PST) Temp. Dew Point Humidity Pressure Visibility Wind Dir Wind Speed Gust Speed Precip Events Conditions
12:00 AM -41.1 °F -49.5 °F 62% 30.44 in - East 1.2 mph - N/A   Unknown
1:00 AM -41.3 °F -49.9 °F 62% 30.45 in - NE 1.2 mph - N/A   Unknown
2:00 AM -41.3 °F -49.9 °F 62% 30.45 in - ENE 1.2 mph - N/A   Unknown
3:00 AM -41.8 °F -50.4 °F 61% 30.47 in - Calm Calm - N/A   Unknown
4:00 AM -44 °F -53 °F 38% 30.48 in - Calm Calm - -  
4:00 AM -44.1 °F -53.1 °F 60% 30.48 in - Calm Calm - N/A   Unknown
5:00 AM -44.3 °F -53.1 °F 60% 30.50 in - Calm Calm - N/A   Unknown
6:00 AM -44.1 °F -53.0 °F 60% 30.50 in - ENE 1.2 mph - N/A   Unknown
7:00 AM -45.0 °F -54.0 °F 60% 30.52 in - East 2.3 mph - N/A   Unknown
8:00 AM -44.9 °F -53.9 °F 60% 30.54 in - SSW 1.2 mph - N/A   Unknown
9:00 AM -45.9 °F -55.1 °F 59% 30.56 in - Calm Calm - N/A   Unknown
10:00 AM -45 °F -54 °F 39% 30.57 in - North 1.2 mph - -  
10:00 AM -44.9 °F -53.9 °F 60% 30.57 in - North 1.2 mph - N/A   Unknown
11:00 AM -40.2 °F -48.6 °F 62% 30.58 in - East 1.2 mph - N/A   Unknown
12:00 PM -40.0 °F -48.8 °F 61% 30.61 in - SE 2.3 mph - N/A   Unknown
1:00 PM -34.1 °F -42.3 °F 64% 30.62 in - Calm Calm - N/A   Unknown
2:00 PM -32.1 °F -40.9 °F 62% 30.63 in - WNW 1.2 mph - N/A   Unknown
3:00 PM -28.1 °F -38.6 °F 58% 30.65 in - Calm Calm - N/A   Unknown
4:00 PM -26 °F -38 °F 33% 30.66 in - WSW 1.2 mph - -  
4:00 PM -26.5 °F -38.0 °F 54% 30.66 in - West 1.2 mph - N/A   Unknown
5:00 PM -27.8 °F -37.3 °F 60% 30.68 in - East 1.2 mph - N/A   Unknown
6:00 PM -31.4 °F -40.0 °F 63% 30.70 in - WNW 1.2 mph - N/A   Unknown
7:00 PM -33.7 °F -41.1 °F 67% 30.72 in - NNW 2.3 mph - N/A   Unknown
8:00 PM -37.5 °F -45.2 °F 65% 30.74 in - Calm Calm - N/A   Unknown
9:00 PM -39.8 °F -48.3 °F 62% 30.76 in - Calm Calm - N/A   Unknown
10:00 PM -40 °F -49 °F 41% 30.78 in - Calm Calm - -  
10:00 PM -40.4 °F -48.8 °F 62% 30.78 in - Calm Calm - N/A   Unknown
11:00 PM -42.9 °F -51.7 °F 61% 30.79 in - Calm Calm - N/A   Unknown